Location: Bernadets
(43.3537°N, 0.3167°E)
Time: 00:33:56
(UTC+00:00)

Cosmos 407 Rocket - Pass Details

Date: 24 October 2021
Orbit: 743 x 787 km, 74.0° (Epoch: 27 November)

Event Time Altitude Azimuth Distance (km) Brightness Sun altitude
Rises 19:53:36 0° 334° (NNW) 3,273 7.3 -31.8°
Reaches altitude 10° 19:56:03 10° 329° (NNW) 2,346 6.5 -32.2°
Enters shadow 20:00:20 45° 285° (WNW) 1,064 4.5 -33.0°
